Flag for Germany Weather past 2 weeks in Ludwigsfelde, Brandenburg, Germany

Now
67 °F

Overcast.


Feels Like: 67 °F
Forecast: 67 / 85 °F
Wind: 3 mph from West

Location: Potsdam

Current Time: Jul 28, 2014 at 6:55:16 AM

Latest Report: Jul 28, 2014 at 6:00 AM


Visibility: 16 mi

Pressure: 29.91 "Hg

Humidity: 95%

Dew point: 65 °F

Location of LudwigsfeldeLocation

Historic Weather in Ludwigsfelde — Graph

°F

Ludwigsfelde temperature yesterday

Maximum temperature yesterday: 86 °F (at 4:00 PM)
Minimum temperature yesterday: 66 °F (at 11:00 PM)
Average temperature yesterday: 73 °F

Past Weeks' High & Low Weather Summary

 TemperatureHumidityPressure
High93 °F (Jul 20, 4:00 PM)99% (Jul 26, 3:00 AM)30.19 "Hg (Jul 26, 3:00 AM)
Low55 °F (Jul 13, 6:00 AM)24% (Jul 20, 4:00 PM)29.73 "Hg (Jul 13, 5:00 PM)
Average72 °F70%29.97 "Hg
* Reported Jul 13 6:00 AM — Jul 28 6:00 AM, Ludwigsfelde, Weather by CustomWeather, © 2014

Note: Actual official high and low records may vary slightly from our data, if they occured in-between our weather recording intervals... More about our weather records

Advertising

Ludwigsfelde weather history for previous 24 hours

 ConditionsComfort  
Time TempWeatherWind HumidityBarometerVisibility
6:00 AM
Jul 28
67 °FOvercast.3 mph95%29.91 "Hg16 mi
5:00 AM67 °FOvercast.3 mph93%29.91 "Hg16 mi
4:00 AM67 °FPassing clouds.5 mph95%29.91 "Hg16 mi
3:00 AM67 °FPassing clouds.5 mph97%29.92 "Hg16 mi
2:00 AM66 °FOvercast.5 mph97%29.93 "Hg22 mi
1:00 AM66 °FPassing clouds.5 mph97%29.93 "Hg22 mi
12:00 AM65 °FOvercast.7 mph96%29.95 "Hg25 mi
11:00 PM
Jul 27
66 °FLight rain. Overcast.6 mph93%29.95 "Hg25 mi
10:00 PM67 °FOvercast.6 mph94%29.95 "Hg22 mi
9:00 PM68 °FOvercast.3 mph95%29.93 "Hg22 mi
8:00 PM69 °FLight rain. Overcast.5 mph96%29.93 "Hg17 mi
7:00 PM70 °FThundershowers. Overcast.5 mph86%29.91 "Hg16 mi
6:00 PM74 °FThundershowers. Overcast.5 mph72%29.90 "Hg19 mi
5:00 PM82 °FThundershowers. Overcast.3 mph52%29.90 "Hg22 mi
4:00 PM86 °FPartly sunny.1 mph38%29.89 "Hg19 mi
3:00 PM85 °FPartly sunny.1 mph48%29.91 "Hg16 mi
2:00 PM85 °FPartly sunny.2 mph47%29.92 "Hg16 mi
1:00 PM84 °FPartly sunny.2 mph48%29.93 "Hg16 mi
12:00 PM82 °FPartly sunny.1 mph59%29.93 "Hg16 mi
11:00 AM79 °FPartly sunny.1 mph64%29.94 "Hg16 mi
10:00 AM77 °FPartly sunny.1 mph68%29.94 "Hg17 mi
9:00 AM74 °FScattered clouds.1 mph73%29.94 "Hg14 mi
8:00 AM69 °FPartly sunny.2 mph82%29.94 "Hg12 mi
7:00 AM67 °FOvercast.3 mph87%29.93 "Hg11 mi
6:00 AM67 °FOvercast.5 mph88%29.92 "Hg12 mi
Weather by CustomWeather, © 2014

See weather overviewHow to use our weather pages